Paso Robles, CA

12:34 AM PDT on March 28, 2017 (GMT -0700)
Paso Robles Municipal

Weather History for KPRB - January, 2015

Change the Weather History Date:

Friday, January 30, 2015

  Actual Average Record
Temperature  
Mean Temperature 52 °F 48 °F  
Max Temperature 66 °F 60 °F 79 °F (2009)
Min Temperature 37 °F 36 °F 22 °F (1949)
Degree Days  
Heating Degree Days 13 17  
Month to date heating degree days 427 535  
Since 1 July heating degree days 1095 1659  
Cooling Degree Days 0 0  
Month to date cooling degree days 0 0  
Year to date cooling degree days 0 0  
Growing Degree Days 2 (Base 50)    
Moisture  
Dew Point 42 °F    
Average Humidity 70    
Maximum Humidity 100    
Minimum Humidity 40    
Precipitation  
Precipitation 0.00 in 0.10 in 1.50 in (1963)
Month to date precipitation 0.24 2.66  
Year to date precipitation 0.24 2.66  
Sea Level Pressure  
Sea Level Pressure 29.98 in    
Wind  
Wind Speed 2 mph (NNE)    
Max Wind Speed 13 mph    
Max Gust Speed 15 mph    
Visibility 4 miles    
Events Fog    
T = Trace of Precipitation, MM = Missing Value Source: NWS Daily Summary

Daily Weather History Graph

Daily Weather History Graph

Search for Another Location

Airport or City:

Trip Planner

Search our weather history database for the weather conditions in past years. The results will help you decide how hot, cold, wet, or windy it might be!

Date:

Astronomy

Jan. 30, 2015 Rise Set
Actual Time 7:04 AM PST 5:27 PM PST
Civil Twilight 6:37 AM PST 5:54 PM PST
Nautical Twilight 6:06 AM PST 6:25 PM PST
Astronomical Twilight 5:36 AM PST 6:55 PM PST
Moon 2:08 PM PST (1/30) 3:36 AM PST (1/30)
Length of Visible Light 11h 17m
Length of Day
10h 23m
Waxing Gibbous, 84% of the Moon is Illuminated
Jan 30
Waxing Gibbous
Feb 3
Full
Feb 11
Last Quarter
Feb 18
New
Feb 25
First Quarter

Hourly Weather History & Observations

Time (PST) Temp. Windchill Dew Point Humidity Pressure Visibility Wind Dir Wind Speed Gust Speed Precip Events Conditions
12:53 AM 44.1 °F 40.8 °F 41.0 °F 89% 30.04 in 5.0 mi NE 5.8 mph - N/A   Clear
1:53 AM 43.0 °F 41.3 °F 41.0 °F 93% 30.04 in 6.0 mi East 3.5 mph - N/A   Clear
2:53 AM 41.0 °F - 39.0 °F 93% 30.03 in 1.8 mi Calm Calm - N/A   Clear
3:03 AM 41.0 °F - 39.0 °F 93% 30.03 in 3.0 mi Calm Calm - N/A   Clear
3:26 AM 42.1 °F 40.2 °F 39.0 °F 89% 30.03 in 2.5 mi NE 3.5 mph - N/A   Clear
3:50 AM 39.2 °F 35.9 °F 37.4 °F 93% 30.02 in 1.5 mi East 4.6 mph - N/A   Clear
3:53 AM 39.9 °F 36.7 °F 37.9 °F 93% 30.01 in 1.8 mi East 4.6 mph - N/A   Clear
4:35 AM 37.9 °F - 37.0 °F 97% 30.01 in 0.8 mi Calm Calm - N/A   Mist
4:47 AM 37.4 °F - 35.6 °F 93% 30.01 in 1.2 mi Calm Calm - N/A   Partly Cloudy
4:53 AM 37.9 °F - 36.0 °F 93% 30.01 in 1.5 mi Calm Calm - N/A   Partly Cloudy
5:04 AM 39.9 °F - 37.9 °F 93% 30.01 in 0.8 mi Calm Calm - N/A   Mist
5:15 AM 39.0 °F - 37.0 °F 93% 30.01 in 0.2 mi Calm Calm - N/A Fog Fog
5:42 AM 37.0 °F - 35.1 °F 93% 30.01 in 0.2 mi Calm Calm - N/A Fog Fog
5:53 AM 37.0 °F - 36.0 °F 96% 30.01 in 0.2 mi Calm Calm - N/A Fog Fog
6:53 AM 37.0 °F - 36.0 °F 96% 30.01 in 0.2 mi Calm Calm - N/A Fog Fog
7:53 AM 37.9 °F 35.5 °F 36.0 °F 93% 30.02 in 0.2 mi South 3.5 mph - N/A Fog Fog
8:53 AM 41.0 °F 39.0 °F 39.0 °F 93% 30.02 in 0.2 mi Variable 3.5 mph - N/A Fog Fog
9:20 AM 42.1 °F - 39.9 °F 92% 30.02 in 0.2 mi Calm Calm - N/A Fog Fog
9:53 AM 43.0 °F - 42.1 °F 97% 30.02 in 0.2 mi Calm Calm - N/A Fog Fog
10:02 AM 44.1 °F - 42.1 °F 93% 30.02 in 0.5 mi Calm Calm - N/A Fog Fog
10:13 AM 44.1 °F - 42.1 °F 93% 30.01 in 1.2 mi Calm Calm - N/A   Overcast
10:33 AM 46.0 °F - 44.1 °F 93% 30.01 in 2.5 mi Calm Calm - N/A   Overcast
10:53 AM 46.9 °F - 45.0 °F 93% 30.01 in 2.5 mi Calm Calm - N/A   Mostly Cloudy
11:00 AM 46.9 °F - 45.0 °F 93% 30.00 in 4.0 mi Calm Calm - N/A   Mostly Cloudy
11:07 AM 48.9 °F - 45.0 °F 86% 29.99 in 5.0 mi Calm Calm - N/A   Scattered Clouds
11:53 AM 54.0 °F - 48.0 °F 80% 29.97 in 7.0 mi WNW 3.5 mph - N/A   Clear
12:53 PM 59.0 °F - 46.0 °F 62% 29.93 in 10.0 mi Calm Calm - N/A   Clear
1:53 PM 63.0 °F - 48.0 °F 58% 29.89 in 10.0 mi WNW 4.6 mph - N/A   Clear
2:53 PM 64.9 °F - 44.1 °F 47% 29.88 in 10.0 mi Variable 3.5 mph - N/A   Clear
3:53 PM 66.0 °F - 41.0 °F 40% 29.87 in 10.0 mi NNW 3.5 mph - N/A   Clear
4:53 PM 64.9 °F - 46.0 °F 50% 29.87 in 10.0 mi Calm Calm - N/A   Clear
5:53 PM 60.1 °F - 46.0 °F 60% 29.88 in 10.0 mi Calm Calm - N/A   Clear
6:53 PM 55.0 °F - 46.9 °F 74% 29.91 in 10.0 mi NE 5.8 mph - N/A   Clear
7:53 PM 54.0 °F - 46.0 °F 75% 29.92 in 10.0 mi NW 6.9 mph - N/A   Clear
8:53 PM 51.1 °F - 48.0 °F 89% 29.93 in 10.0 mi NW 8.1 mph - N/A   Clear
9:53 PM 48.9 °F - 46.0 °F 90% 29.92 in 10.0 mi NNE 3.5 mph - N/A   Clear
10:53 PM 48.9 °F - 45.0 °F 86% 29.91 in 8.0 mi Calm Calm - N/A   Clear
11:36 PM 46.0 °F - 44.1 °F 93% 29.91 in 1.8 mi Calm Calm - N/A   Partly Cloudy
11:42 PM 44.1 °F - 42.1 °F 93% 29.91 in 3.0 mi Calm Calm - N/A   Partly Cloudy
11:53 PM 44.1 °F - 41.0 °F 89% 29.91 in 4.0 mi Calm Calm - N/A   Clear